[[{"header":{"parameterUnit":"m.s-1","parameterCategory":1,"la1":30.2992,"la2":30.254,"lo1":-89.0895,"lo2":-89.0443,"dy":0.0025,"dx":0.0025,"nx":19,"ny":19,"refTime":"2026-05-24T21:00:00:Z","depth":0,"parameterNumber":2,"parameterNumberName":"U-component_of_WINDS"},"data":[0,0,0,-4.437,-4.4375,-4.4648,-4.465,-4.4988,-4.4991,0,0,0,0,0,0,0,0,0,0,0,-4.428,-4.4282,-4.4369,-4.4376,-4.4648,-4.465,-4.4988,-4.4991,0,0,0,0,0,0,0,0,0,0,0,-4.4279,-4.4281,-4.4284,-4.4377,-4.4648,-4.465,-4.4987,-4.4786,0,0,0,0,0,0,0,0,0,0,-4.4523,-4.443,-4.4281,-4.4284,-4.4378,-4.4648,-4.465,-4.4776,-4.4798,-4.4859,0,-4.4909,0,-4.4955,-4.5013,-4.5014,0,0,0,-4.4384,-4.4412,-4.4493,-4.4284,-4.4381,-4.4647,-4.4528,-4.4789,-4.4814,-4.4889,-4.4914,-4.4927,-4.4961,-4.5015,-4.5017,-4.5338,-4.5339,0,0,-4.4368,-4.4325,-4.4476,-4.4509,-4.4463,-4.4519,-4.4536,-4.4804,-4.483,-4.4915,-4.4935,-4.4966,-4.5017,-4.502,-4.5337,-4.5338,0,0,0,-4.432,-4.4314,-4.4389,-4.4494,-4.4544,-4.4526,-4.4546,-4.4818,-4.4846,-4.4939,-4.497,-4.5019,-4.5023,-4.5336,-4.5338,-4.5349,0,0,0,-4.4311,-4.4286,-4.4382,-4.4358,-4.4539,-4.4684,-4.4554,-4.4827,-4.4859,-4.4969,-4.5019,-4.5026,-4.5335,-4.5337,-4.5346,-4.5362,0,0,0,-4.4265,-4.4281,-4.4316,-4.4355,-4.4471,-4.468,-4.4724,-4.4835,-4.4878,-4.5014,-4.5027,-4.5334,-4.5336,-4.5344,-4.5358,-4.5432,0,0,0,-4.4204,-4.4325,-4.4316,-4.4464,-4.4468,-4.4685,-4.4723,-4.4888,-4.5006,-4.5021,-4.5335,-4.5337,-4.5343,-4.5355,-4.5429,-4.5485,-4.5505,0,0,-4.4332,-4.4339,-4.4429,-4.4429,-4.4636,-4.4647,-4.4858,-4.5009,-4.5064,-4.5244,-4.5253,-4.5347,-4.5357,-4.5431,-4.5634,-4.5649,0,0,0,-4.4455,-4.4519,-4.4584,-4.4693,-4.481,-4.4912,-4.5036,-4.5093,-4.5247,-4.5147,-4.5397,-4.5405,-4.545,-4.5479,-4.5492,-4.5533,-4.5349,-4.5349,-4.5349,-4.4572,-4.4634,-4.4787,-4.4882,-4.4988,-4.5115,-4.5207,-4.5306,-4.5339,-4.5397,-4.545,-4.5565,-4.5597,-4.5607,-4.5649,-4.5487,-4.5487,-4.5487,-4.5487,-4.4763,-4.4863,-4.4904,-4.5066,-4.5132,-4.5272,-4.5399,-4.5418,-4.5558,-4.553,-4.5573,-4.5534,-4.5622,-4.5662,-4.5488,-4.5488,-4.5488,-4.5488,-4.5488,-4.4845,-4.4903,-4.4969,-4.5134,-4.5255,-4.5349,-4.5481,-4.5538,-4.5593,-4.5635,-4.5697,-4.5697,-4.5702,-4.5661,-4.5662,-4.5662,-4.5662,-4.5663,-4.5663,-4.4902,-4.4976,-4.5078,-4.5213,-4.5291,-4.5402,-4.5531,-4.5611,-4.5714,-4.5745,-4.5746,-4.5772,-4.5619,-4.5578,-4.5669,-4.5668,-4.5667,-4.5667,-4.5666,-4.5069,-4.504,-4.5198,-4.5276,-4.544,-4.5556,-4.5628,-4.5785,-4.5859,-4.5923,-4.5942,-4.582,-4.5831,-4.5822,-4.5788,-4.5928,-4.5928,-4.5928,-4.5928,-4.5136,-4.5147,-4.5322,-4.5442,-4.5568,-4.5648,-4.5828,-4.5931,-4.6034,-4.6084,-4.6073,-4.6034,-4.6022,-4.6041,-4.6026,-4.5995,-4.6186,-4.6186,-4.6186,-4.5242,-4.5268,-4.5407,-4.5505,-4.5638,-4.5751,-4.5921,-4.6061,-4.6172,-4.6198,-4.6125,-4.6114,-4.6052,-4.6029,-4.6049,-4.6025,-4.597,0,0]},{"header":{"parameterUnit":"m.s-1","parameterCategory":1,"la1":30.2992,"la2":30.254,"lo1":-89.0895,"lo2":-89.0443,"dy":0.0025,"dx":0.0025,"nx":19,"ny":19,"refTime":"2026-05-24T21:00:00:Z","depth":0,"parameterNumber":3,"parameterNumberName":"V-component_of_WINDS"},"data":[0,0,0,5.4172,5.4172,5.4153,5.4153,5.4136,5.4136,0,0,0,0,0,0,0,0,0,0,0,5.4183,5.4183,5.4172,5.4172,5.4153,5.4153,5.4136,5.4136,0,0,0,0,0,0,0,0,0,0,0,5.4183,5.4183,5.4183,5.4172,5.4153,5.4153,5.4136,5.4148,0,0,0,0,0,0,0,0,0,0,5.4164,5.418,5.4183,5.4183,5.4172,5.4153,5.4153,5.4148,5.4147,5.4148,0,5.4152,0,5.4144,5.4136,5.4136,0,0,0,5.4167,5.4181,5.4171,5.4183,5.4171,5.4153,5.416,5.4147,5.4146,5.4147,5.4152,5.4151,5.4144,5.4136,5.4136,5.4161,5.4162,0,0,5.4168,5.4182,5.4172,5.4171,5.4175,5.4161,5.416,5.4146,5.4152,5.4152,5.415,5.4143,5.4136,5.4136,5.4161,5.4162,0,0,0,5.4174,5.4183,5.4173,5.4172,5.4168,5.416,5.4159,5.4153,5.4148,5.415,5.4143,5.4136,5.4135,5.4161,5.4161,5.4191,0,0,0,5.4175,5.4187,5.4174,5.4183,5.4168,5.416,5.4166,5.4149,5.4147,5.4143,5.4136,5.4135,5.416,5.4161,5.419,5.4202,0,0,0,5.4182,5.4187,5.4187,5.4183,5.4176,5.416,5.4155,5.4149,5.4143,5.4136,5.4135,5.416,5.4161,5.4188,5.42,5.4213,0,0,0,5.4194,5.4213,5.4188,5.4206,5.4176,5.418,5.4155,5.4156,5.4153,5.4135,5.416,5.4161,5.4188,5.4198,5.4211,5.4226,5.4233,0,0,5.4226,5.4217,5.4227,5.4204,5.4216,5.4181,5.4197,5.418,5.4166,5.4163,5.4164,5.419,5.42,5.4213,5.4273,5.4279,0,0,0,5.4242,5.4249,5.4249,5.4248,5.4237,5.4228,5.4207,5.4201,5.4199,5.4168,5.4198,5.4204,5.4211,5.4217,5.4222,5.4226,5.4165,5.4165,5.4165,5.4306,5.4288,5.4303,5.4283,5.4282,5.4262,5.4259,5.4247,5.4228,5.4236,5.4234,5.4273,5.4281,5.4285,5.429,5.4241,5.4241,5.4242,5.4242,5.435,5.4357,5.4333,5.4339,5.432,5.4324,5.4306,5.4293,5.4293,5.4273,5.4278,5.4256,5.4292,5.4295,5.4244,5.4243,5.4243,5.4243,5.4243,5.4389,5.4389,5.4382,5.4378,5.4378,5.4357,5.4359,5.4341,5.4324,5.4329,5.4326,5.4325,5.4321,5.4329,5.4329,5.4329,5.433,5.433,5.433,5.4431,5.4423,5.4427,5.4418,5.4415,5.4408,5.4389,5.4384,5.4375,5.4362,5.4362,5.4342,5.43,5.4289,5.4332,5.4331,5.4331,5.4331,5.4331,5.448,5.4467,5.4473,5.4471,5.4458,5.4458,5.4436,5.4429,5.4424,5.4425,5.4405,5.4377,5.4366,5.4362,5.4352,5.4409,5.4409,5.4409,5.4409,5.4512,5.4506,5.4509,5.4505,5.45,5.4481,5.4488,5.4473,5.4455,5.445,5.444,5.4427,5.4423,5.4415,5.4409,5.44,5.4468,5.4468,5.4468,5.4541,5.4534,5.4543,5.4527,5.4516,5.4507,5.4513,5.4509,5.4485,5.447,5.4446,5.4443,5.4422,5.4416,5.4398,5.439,5.4373,0,0]}]]